RYR86DX EIDW-EGGW

Flight info

Callsign RYR86DX
Flight time N/A
Altitude 33000
Route ENDEQ3J ENDEQ Q36 NOSLO Z197 LISTO
Aircraft B738/M-SDE2E3FGHIRWXY/LB1

Departure

Time N/A
Airport Dublin Airport (EIDW)

Arrival

Time 2026-04-30 17:53
Airport London Luton Airport (EGGW)
Time Latitude Longitude Altitude Speed Heading
2026-04-30 17:39 52.21650 -0.11326 7078 ft 295 kts 326°
2026-04-30 17:41 52.16958 -0.29807 5990 ft 256 kts 216°
2026-04-30 17:42 52.14219 -0.33564 5996 ft 258 kts 216°
2026-04-30 17:42 52.10105 -0.39194 5999 ft 258 kts 216°
2026-04-30 17:43 52.07364 -0.42954 6007 ft 258 kts 216°
2026-04-30 17:44 52.03224 -0.48603 6000 ft 260 kts 215°
2026-04-30 17:44 51.99099 -0.54250 5819 ft 255 kts 216°
2026-04-30 17:46 51.92327 -0.63562 4996 ft 254 kts 216°
2026-04-30 17:47 51.86928 -0.70982 4992 ft 252 kts 216°
2026-04-30 17:48 51.81627 -0.69031 4267 ft 230 kts 104°
2026-04-30 17:48 51.83118 -0.61939 3505 ft 216 kts 77°
2026-04-30 17:49 51.84636 -0.53394 2510 ft 181 kts 80°
2026-04-30 17:50 51.85793 -0.46592 1591 ft 126 kts 79°
2026-04-30 17:51 51.86508 -0.42372 1057 ft 134 kts 77°
2026-04-30 17:52 51.87267 -0.38006 543 ft 126 kts 77°
2026-04-30 17:53 51.87783 -0.36019 516 ft 12 kts 292°
2026-04-30 17:54 51.87705 -0.36533 519 ft 11 kts 255°
2026-04-30 17:55 51.87709 -0.36968 521 ft 14 kts 342°
2026-04-30 17:56 51.88172 -0.37213 514 ft 17 kts 342°
2026-04-30 17:57 51.88209 -0.37572 515 ft 12 kts 261°
2026-04-30 17:58 51.88078 -0.37836 522 ft 6 kts 159°
2026-04-30 17:59 51.88053 -0.37789 522 ft 0 kts 128°